Year,Month,Day,Hour,Minute,Value (Times are PST for temperature in C)
2015,05,29,00,00,17.10
2015,05,29,00,01,17.10
2015,05,29,00,02,17.10
2015,05,29,00,03,17.10
2015,05,29,00,04,17.20
2015,05,29,00,05,17.20
2015,05,29,00,06,17.20
2015,05,29,00,07,17.20
2015,05,29,00,08,17.20
2015,05,29,00,09,17.30
2015,05,29,00,10,17.30
2015,05,29,00,11,17.30
2015,05,29,00,12,17.30
2015,05,29,00,13,17.20
2015,05,29,00,14,17.20
2015,05,29,00,15,17.20
2015,05,29,00,16,17.20
2015,05,29,00,17,17.20
2015,05,29,00,18,17.20
2015,05,29,00,19,17.20
2015,05,29,00,20,17.20
2015,05,29,00,21,17.20
2015,05,29,00,22,17.20
2015,05,29,00,23,17.20
2015,05,29,00,24,17.20
2015,05,29,00,25,17.20
2015,05,29,00,26,17.20
2015,05,29,00,27,17.20
2015,05,29,00,28,17.20
2015,05,29,00,29,17.20
2015,05,29,00,30,17.20
2015,05,29,00,31,17.20
2015,05,29,00,32,17.20
2015,05,29,00,33,17.20
2015,05,29,00,34,17.20
2015,05,29,00,35,17.10
2015,05,29,00,36,17.10
2015,05,29,00,37,17.10
2015,05,29,00,38,17.10
2015,05,29,00,39,17.10
2015,05,29,00,40,17.10
2015,05,29,00,41,17.00
2015,05,29,00,42,17.00
2015,05,29,00,43,17.00
2015,05,29,00,44,16.90
2015,05,29,00,45,16.90
2015,05,29,00,46,16.80
2015,05,29,00,47,16.80
2015,05,29,00,48,16.70
2015,05,29,00,49,16.70
2015,05,29,00,50,16.60
2015,05,29,00,51,16.50
2015,05,29,00,52,16.40
2015,05,29,00,53,16.40
2015,05,29,00,54,16.30
2015,05,29,00,55,16.30
2015,05,29,00,56,16.20
2015,05,29,00,57,16.10
2015,05,29,00,58,16.10
2015,05,29,00,59,16.00
2015,05,29,01,00,16.00
2015,05,29,01,01,15.90
2015,05,29,01,02,15.90
2015,05,29,01,03,15.80
2015,05,29,01,04,15.80
2015,05,29,01,05,15.70
2015,05,29,01,06,15.70
2015,05,29,01,07,15.60
2015,05,29,01,08,15.60
2015,05,29,01,09,15.60
2015,05,29,01,10,15.50
2015,05,29,01,11,15.50
2015,05,29,01,12,15.40
2015,05,29,01,13,15.40
2015,05,29,01,14,15.30
2015,05,29,01,15,15.30
2015,05,29,01,16,15.30
2015,05,29,01,17,15.20
2015,05,29,01,18,15.20
2015,05,29,01,19,15.20
2015,05,29,01,20,15.20
2015,05,29,01,21,15.10
2015,05,29,01,22,15.10
2015,05,29,01,23,15.00
2015,05,29,01,24,15.00
2015,05,29,01,25,15.00
2015,05,29,01,26,15.00
2015,05,29,01,27,15.00
2015,05,29,01,28,15.00
2015,05,29,01,29,15.00
2015,05,29,01,30,15.00
2015,05,29,01,31,15.00
2015,05,29,01,32,15.00
2015,05,29,01,33,15.00
2015,05,29,01,34,15.00
2015,05,29,01,35,15.00
2015,05,29,01,36,14.90
2015,05,29,01,37,14.90
2015,05,29,01,38,14.80
2015,05,29,01,39,14.80
2015,05,29,01,40,14.80
2015,05,29,01,41,14.80
2015,05,29,01,42,14.70
2015,05,29,01,43,14.70
2015,05,29,01,44,14.70
2015,05,29,01,45,14.70
2015,05,29,01,46,14.60
2015,05,29,01,47,14.60
2015,05,29,01,48,14.60
2015,05,29,01,49,14.60
2015,05,29,01,50,14.60
2015,05,29,01,51,14.60
2015,05,29,01,52,14.50
2015,05,29,01,53,14.50
2015,05,29,01,54,14.50
2015,05,29,01,55,14.50
2015,05,29,01,56,14.40
2015,05,29,01,57,14.40
2015,05,29,01,58,14.40
2015,05,29,01,59,14.40
2015,05,29,02,00,14.40
2015,05,29,02,01,14.40
2015,05,29,02,02,14.40
2015,05,29,02,03,14.40
2015,05,29,02,04,14.30
2015,05,29,02,05,14.30
2015,05,29,02,06,14.30
2015,05,29,02,07,14.30
2015,05,29,02,08,14.40
2015,05,29,02,09,14.40
2015,05,29,02,10,14.40
2015,05,29,02,11,14.40
2015,05,29,02,12,14.40
2015,05,29,02,13,14.40
2015,05,29,02,14,14.40
2015,05,29,02,15,14.40
2015,05,29,02,16,14.40
2015,05,29,02,17,14.40
2015,05,29,02,18,14.40
2015,05,29,02,19,14.40
2015,05,29,02,20,14.40
2015,05,29,02,21,14.40
2015,05,29,02,22,14.40
2015,05,29,02,23,14.40
2015,05,29,02,24,14.40
2015,05,29,02,25,14.40
2015,05,29,02,26,14.30
2015,05,29,02,27,14.30
2015,05,29,02,28,14.30
2015,05,29,02,29,14.30
2015,05,29,02,30,14.30
2015,05,29,02,31,14.40
2015,05,29,02,32,14.40
2015,05,29,02,33,14.50
2015,05,29,02,34,14.50
2015,05,29,02,35,14.50
2015,05,29,02,36,14.60
2015,05,29,02,37,14.60
2015,05,29,02,38,14.70
2015,05,29,02,39,14.70
2015,05,29,02,40,14.70
2015,05,29,02,41,14.70
2015,05,29,02,42,14.70
2015,05,29,02,43,14.70
2015,05,29,02,44,14.80
2015,05,29,02,45,14.80
2015,05,29,02,46,14.80
2015,05,29,02,47,14.80
2015,05,29,02,48,14.80
2015,05,29,02,49,14.70
2015,05,29,02,50,14.70
2015,05,29,02,51,14.60
2015,05,29,02,52,14.60
2015,05,29,02,53,14.60
2015,05,29,02,54,14.50
2015,05,29,02,55,14.40
2015,05,29,02,56,14.40
2015,05,29,02,57,14.40
2015,05,29,02,58,14.30
2015,05,29,02,59,14.30
2015,05,29,03,00,14.30
2015,05,29,03,01,14.20
2015,05,29,03,02,14.20
2015,05,29,03,03,14.20
2015,05,29,03,04,14.20
2015,05,29,03,05,14.20
2015,05,29,03,06,14.20
2015,05,29,03,07,14.20
2015,05,29,03,08,14.20
2015,05,29,03,09,14.20
2015,05,29,03,10,14.20
2015,05,29,03,11,14.20
2015,05,29,03,12,14.20
2015,05,29,03,13,14.20
2015,05,29,03,14,14.20
2015,05,29,03,15,14.20
2015,05,29,03,16,14.20
2015,05,29,03,17,14.20
2015,05,29,03,18,14.20
2015,05,29,03,19,14.20
2015,05,29,03,20,14.20
2015,05,29,03,21,14.10
2015,05,29,03,22,14.10
2015,05,29,03,23,14.10
2015,05,29,03,24,14.10
2015,05,29,03,25,14.10
2015,05,29,03,26,14.10
2015,05,29,03,27,14.10
2015,05,29,03,28,14.10
2015,05,29,03,29,14.00
2015,05,29,03,30,14.00
2015,05,29,03,31,14.00
2015,05,29,03,32,13.90
2015,05,29,03,33,13.90
2015,05,29,03,34,13.90
2015,05,29,03,35,13.80
2015,05,29,03,36,13.80
2015,05,29,03,37,13.80
2015,05,29,03,38,13.80
2015,05,29,03,39,13.80
2015,05,29,03,40,13.80
2015,05,29,03,41,13.90
2015,05,29,03,42,13.90
2015,05,29,03,43,13.90
2015,05,29,03,44,13.90
2015,05,29,03,45,14.00
2015,05,29,03,46,14.00
2015,05,29,03,47,14.10
2015,05,29,03,48,14.10
2015,05,29,03,49,14.10
2015,05,29,03,50,14.10
2015,05,29,03,51,14.10
2015,05,29,03,52,14.00
2015,05,29,03,53,14.00
2015,05,29,03,54,13.90
2015,05,29,03,55,13.90
2015,05,29,03,56,13.80
2015,05,29,03,57,13.80
2015,05,29,03,58,13.80
2015,05,29,03,59,13.70
2015,05,29,04,00,13.70
2015,05,29,04,01,13.70
2015,05,29,04,02,13.70
2015,05,29,04,03,13.60
2015,05,29,04,04,13.60
2015,05,29,04,05,13.50
2015,05,29,04,06,13.50
2015,05,29,04,07,13.40
2015,05,29,04,08,13.40
2015,05,29,04,09,13.40
2015,05,29,04,10,13.30
2015,05,29,04,11,13.30
2015,05,29,04,12,13.30
2015,05,29,04,13,13.20
2015,05,29,04,14,13.20
2015,05,29,04,15,13.20
2015,05,29,04,16,13.20
2015,05,29,04,17,13.20
2015,05,29,04,18,13.20
2015,05,29,04,19,13.10
2015,05,29,04,20,13.10
2015,05,29,04,21,13.10
2015,05,29,04,22,13.10
2015,05,29,04,23,13.10
2015,05,29,04,24,13.10
2015,05,29,04,25,13.00
2015,05,29,04,26,13.00
2015,05,29,04,27,13.00
2015,05,29,04,28,12.90
2015,05,29,04,29,12.90
2015,05,29,04,30,12.90
2015,05,29,04,31,12.90
2015,05,29,04,32,12.90
2015,05,29,04,33,12.80
2015,05,29,04,34,12.80
2015,05,29,04,35,12.80
2015,05,29,04,36,12.80
2015,05,29,04,37,12.70
2015,05,29,04,38,12.70
2015,05,29,04,39,12.70
2015,05,29,04,40,12.70
2015,05,29,04,41,12.60
2015,05,29,04,42,12.60
2015,05,29,04,43,12.60
2015,05,29,04,44,12.60
2015,05,29,04,45,12.50
2015,05,29,04,46,12.50
2015,05,29,04,47,12.50
2015,05,29,04,48,12.50
2015,05,29,04,49,12.50
2015,05,29,04,50,12.50
2015,05,29,04,51,12.50
2015,05,29,04,52,12.50
2015,05,29,04,53,12.60
2015,05,29,04,54,12.60
2015,05,29,04,55,12.60
2015,05,29,04,56,12.50
2015,05,29,04,57,12.50
2015,05,29,04,58,12.50
2015,05,29,04,59,12.50
2015,05,29,05,00,12.50
2015,05,29,05,01,12.40
2015,05,29,05,02,12.40
2015,05,29,05,03,12.40
2015,05,29,05,04,12.40
2015,05,29,05,05,12.40
2015,05,29,05,06,12.30
2015,05,29,05,07,12.30
2015,05,29,05,08,12.30
2015,05,29,05,09,12.30
2015,05,29,05,10,12.30
2015,05,29,05,11,12.30
2015,05,29,05,12,12.30
2015,05,29,05,13,12.30
2015,05,29,05,14,12.30
2015,05,29,05,15,12.30
2015,05,29,05,16,12.30
2015,05,29,05,17,12.30
2015,05,29,05,18,12.30
2015,05,29,05,19,12.30
2015,05,29,05,20,12.30
2015,05,29,05,21,12.30
2015,05,29,05,22,12.30
2015,05,29,05,23,12.30
2015,05,29,05,24,12.20
2015,05,29,05,25,12.20
2015,05,29,05,26,12.20
2015,05,29,05,27,12.20
2015,05,29,05,28,12.10
2015,05,29,05,29,12.10
2015,05,29,05,30,12.20
2015,05,29,05,31,12.20
2015,05,29,05,32,12.20
2015,05,29,05,33,12.20
2015,05,29,05,34,12.30
2015,05,29,05,35,12.40
2015,05,29,05,36,12.50
2015,05,29,05,37,12.50
2015,05,29,05,38,12.60
2015,05,29,05,39,12.70
2015,05,29,05,40,12.70
2015,05,29,05,41,12.80
2015,05,29,05,42,12.80
2015,05,29,05,43,12.90
2015,05,29,05,44,12.90
2015,05,29,05,45,12.90
2015,05,29,05,46,13.00
2015,05,29,05,47,13.00
2015,05,29,05,48,13.00
2015,05,29,05,49,13.00
2015,05,29,05,50,13.10
2015,05,29,05,51,13.10
2015,05,29,05,52,13.10
2015,05,29,05,53,13.10
2015,05,29,05,54,13.10
2015,05,29,05,55,13.10
2015,05,29,05,56,13.10
2015,05,29,05,57,13.10
2015,05,29,05,58,13.10
2015,05,29,05,59,13.10
2015,05,29,06,00,13.10
2015,05,29,06,01,13.10
2015,05,29,06,02,13.20
2015,05,29,06,03,13.20
2015,05,29,06,04,13.20
2015,05,29,06,05,13.20
2015,05,29,06,06,13.20
2015,05,29,06,07,13.20
2015,05,29,06,08,13.20
2015,05,29,06,09,13.20
2015,05,29,06,10,13.20
2015,05,29,06,11,13.20
2015,05,29,06,12,13.20
2015,05,29,06,13,13.20
2015,05,29,06,14,13.30
2015,05,29,06,15,13.30
2015,05,29,06,16,13.30
2015,05,29,06,17,13.30
2015,05,29,06,18,13.30
2015,05,29,06,19,13.30
2015,05,29,06,20,13.30
2015,05,29,06,21,13.40
2015,05,29,06,22,13.40
2015,05,29,06,23,13.40
2015,05,29,06,24,13.50
2015,05,29,06,25,13.50
2015,05,29,06,26,13.50
2015,05,29,06,27,13.50
2015,05,29,06,28,13.50
2015,05,29,06,29,13.60
2015,05,29,06,30,13.60
2015,05,29,06,31,13.60
2015,05,29,06,32,13.60
2015,05,29,06,33,13.60
2015,05,29,06,34,13.60
2015,05,29,06,35,13.70
2015,05,29,06,36,13.70
2015,05,29,06,37,13.70
2015,05,29,06,38,13.70
2015,05,29,06,39,13.80
2015,05,29,06,40,13.80
2015,05,29,06,41,13.80
2015,05,29,06,42,13.80
2015,05,29,06,43,13.90
2015,05,29,06,44,13.90
2015,05,29,06,45,14.00
2015,05,29,06,46,14.00
2015,05,29,06,47,14.10
2015,05,29,06,48,14.10
2015,05,29,06,49,14.20
2015,05,29,06,50,14.20
2015,05,29,06,51,14.30
2015,05,29,06,52,14.30
2015,05,29,06,53,14.30
2015,05,29,06,54,14.40
2015,05,29,06,55,14.40
2015,05,29,06,56,14.40
2015,05,29,06,57,14.50
2015,05,29,06,58,14.50
2015,05,29,06,59,14.60
2015,05,29,07,00,14.60
2015,05,29,07,01,14.60
2015,05,29,07,02,14.60
2015,05,29,07,03,14.60
2015,05,29,07,04,14.70
2015,05,29,07,05,14.70
2015,05,29,07,06,14.70
2015,05,29,07,07,14.70
2015,05,29,07,08,14.70
2015,05,29,07,09,14.70
2015,05,29,07,10,14.70
2015,05,29,07,11,14.70
2015,05,29,07,12,14.70
2015,05,29,07,13,14.70
2015,05,29,07,14,14.70
2015,05,29,07,15,14.70
2015,05,29,07,16,14.70
2015,05,29,07,17,14.70
2015,05,29,07,18,14.70
2015,05,29,07,19,14.70
2015,05,29,07,20,14.60
2015,05,29,07,21,14.60
2015,05,29,07,22,14.60
2015,05,29,07,23,14.60
2015,05,29,07,24,14.60
2015,05,29,07,25,14.60
2015,05,29,07,26,14.60
2015,05,29,07,27,14.60
2015,05,29,07,28,14.60
2015,05,29,07,29,14.60
2015,05,29,07,30,14.70
2015,05,29,07,31,14.70
2015,05,29,07,32,14.70
2015,05,29,07,33,14.70
2015,05,29,07,34,14.70
2015,05,29,07,35,14.70
2015,05,29,07,36,14.70
2015,05,29,07,37,14.80
2015,05,29,07,38,14.80
2015,05,29,07,39,14.80
2015,05,29,07,40,14.90
2015,05,29,07,41,14.90
2015,05,29,07,42,15.00
2015,05,29,07,43,15.00
2015,05,29,07,44,15.00
2015,05,29,07,45,15.00
2015,05,29,07,46,15.00
2015,05,29,07,47,15.10
2015,05,29,07,48,15.20
2015,05,29,07,49,15.20
2015,05,29,07,50,15.30
2015,05,29,07,51,15.30
2015,05,29,07,52,15.30
2015,05,29,07,53,15.30
2015,05,29,07,54,15.40
2015,05,29,07,55,15.40
2015,05,29,07,56,15.50
2015,05,29,07,57,15.50
2015,05,29,07,58,15.60
2015,05,29,07,59,15.60
2015,05,29,08,00,15.60
2015,05,29,08,01,15.60
2015,05,29,08,02,15.70
2015,05,29,08,03,15.70
2015,05,29,08,04,15.70
2015,05,29,08,05,15.70
2015,05,29,08,06,15.70
2015,05,29,08,07,15.70
2015,05,29,08,08,15.70
2015,05,29,08,09,15.70
2015,05,29,08,10,15.70
2015,05,29,08,11,15.70
2015,05,29,08,12,15.80
2015,05,29,08,13,15.80
2015,05,29,08,14,15.80
2015,05,29,08,15,15.80
2015,05,29,08,16,15.80
2015,05,29,08,17,15.80
2015,05,29,08,18,15.80
2015,05,29,08,19,15.80
2015,05,29,08,20,15.80
2015,05,29,08,21,15.80
2015,05,29,08,22,15.80
2015,05,29,08,23,15.80
2015,05,29,08,24,15.80
2015,05,29,08,25,15.80
2015,05,29,08,26,15.90
2015,05,29,08,27,15.90
2015,05,29,08,28,15.90
2015,05,29,08,29,15.90
2015,05,29,08,30,15.90
2015,05,29,08,31,15.90
2015,05,29,08,32,15.90
2015,05,29,08,33,16.00
2015,05,29,08,34,16.00
2015,05,29,08,35,16.00
2015,05,29,08,36,16.10
2015,05,29,08,37,16.10
2015,05,29,08,38,16.10
2015,05,29,08,39,16.20
2015,05,29,08,40,16.20
2015,05,29,08,41,16.30
2015,05,29,08,42,16.30
2015,05,29,08,43,16.40
2015,05,29,08,44,16.40
2015,05,29,08,45,16.50
2015,05,29,08,46,16.50
2015,05,29,08,47,16.60
2015,05,29,08,48,16.60
2015,05,29,08,49,16.70
2015,05,29,08,50,16.70
2015,05,29,08,51,16.80
2015,05,29,08,52,16.90
2015,05,29,08,53,17.00
2015,05,29,08,54,17.00
2015,05,29,08,55,17.10
2015,05,29,08,56,17.10
2015,05,29,08,57,17.10
2015,05,29,08,58,17.20
2015,05,29,08,59,17.10
2015,05,29,09,00,17.10
2015,05,29,09,01,17.10
2015,05,29,09,02,17.10
2015,05,29,09,03,17.00
2015,05,29,09,04,16.90
2015,05,29,09,05,16.90
2015,05,29,09,06,16.80
2015,05,29,09,07,16.80
2015,05,29,09,08,16.80
2015,05,29,09,09,16.80
2015,05,29,09,10,16.80
2015,05,29,09,11,16.80
2015,05,29,09,12,16.80
2015,05,29,09,13,16.70
2015,05,29,09,14,16.70
2015,05,29,09,15,16.70
2015,05,29,09,16,16.80
2015,05,29,09,17,16.80
2015,05,29,09,18,16.80
2015,05,29,09,19,16.80
2015,05,29,09,20,16.80
2015,05,29,09,21,16.80
2015,05,29,09,22,16.70
2015,05,29,09,23,16.70
2015,05,29,09,24,16.70
2015,05,29,09,25,16.70
2015,05,29,09,26,16.70
2015,05,29,09,27,16.70
2015,05,29,09,28,16.70
2015,05,29,09,29,16.70
2015,05,29,09,30,16.60
2015,05,29,09,31,16.60
2015,05,29,09,32,16.70
2015,05,29,09,33,16.70
2015,05,29,09,34,16.70
2015,05,29,09,35,16.70
2015,05,29,09,36,16.70
2015,05,29,09,37,16.60
2015,05,29,09,38,16.50
2015,05,29,09,39,16.40
2015,05,29,09,40,16.40
2015,05,29,09,41,16.40
2015,05,29,09,42,16.40
2015,05,29,09,43,16.40
2015,05,29,09,44,16.40
2015,05,29,09,45,16.40
2015,05,29,09,46,16.40
2015,05,29,09,47,16.40
2015,05,29,09,48,16.40
2015,05,29,09,49,16.50
2015,05,29,09,50,16.50
2015,05,29,09,51,16.60
2015,05,29,09,52,16.60
2015,05,29,09,53,16.70
2015,05,29,09,54,16.70
2015,05,29,09,55,16.80
2015,05,29,09,56,16.80
2015,05,29,09,57,16.80
2015,05,29,09,58,16.80
2015,05,29,09,59,16.80
2015,05,29,10,00,16.80
2015,05,29,10,01,16.80
2015,05,29,10,02,16.80
2015,05,29,10,03,16.90
2015,05,29,10,04,16.90
2015,05,29,10,05,16.80
2015,05,29,10,06,16.80
2015,05,29,10,07,16.70
2015,05,29,10,08,16.60
2015,05,29,10,09,16.60
2015,05,29,10,10,16.60
2015,05,29,10,11,16.60
2015,05,29,10,12,16.60
2015,05,29,10,13,16.60
2015,05,29,10,14,16.60
2015,05,29,10,15,16.70
2015,05,29,10,16,16.70
2015,05,29,10,17,16.70
2015,05,29,10,18,16.70
2015,05,29,10,19,16.70
2015,05,29,10,20,16.70
2015,05,29,10,21,16.70
2015,05,29,10,22,16.70
2015,05,29,10,23,16.70
2015,05,29,10,24,16.60
2015,05,29,10,25,16.50
2015,05,29,10,26,16.40
2015,05,29,10,27,16.40
2015,05,29,10,28,16.40
2015,05,29,10,29,16.30
2015,05,29,10,30,16.30
2015,05,29,10,31,16.30
2015,05,29,10,32,16.30
2015,05,29,10,33,16.40
2015,05,29,10,34,16.40
2015,05,29,10,35,16.50
2015,05,29,10,36,16.50
2015,05,29,10,37,16.50
2015,05,29,10,38,16.40
2015,05,29,10,39,16.40
2015,05,29,10,40,16.40
2015,05,29,10,41,16.40
2015,05,29,10,42,16.40
2015,05,29,10,43,16.40
2015,05,29,10,44,16.40
2015,05,29,10,45,16.40
2015,05,29,10,46,16.40
2015,05,29,10,47,16.40
2015,05,29,10,48,16.40
2015,05,29,10,49,16.50
2015,05,29,10,50,16.50
2015,05,29,10,51,16.50
2015,05,29,10,52,16.60
2015,05,29,10,53,16.70
2015,05,29,10,54,16.80
2015,05,29,10,55,16.80
2015,05,29,10,56,16.80
2015,05,29,10,57,16.90
2015,05,29,10,58,16.90
2015,05,29,10,59,16.90
2015,05,29,11,00,16.90
2015,05,29,11,01,16.90
2015,05,29,11,02,17.00
2015,05,29,11,03,17.00
2015,05,29,11,04,17.10
2015,05,29,11,05,17.10
2015,05,29,11,06,17.10
2015,05,29,11,07,17.10
2015,05,29,11,08,17.10
2015,05,29,11,09,17.10
2015,05,29,11,10,17.10
2015,05,29,11,11,17.10
2015,05,29,11,12,17.10
2015,05,29,11,13,17.10
2015,05,29,11,14,17.00
2015,05,29,11,15,17.00
2015,05,29,11,16,16.90
2015,05,29,11,17,17.00
2015,05,29,11,18,17.00
2015,05,29,11,19,17.10
2015,05,29,11,20,17.10
2015,05,29,11,21,17.10
2015,05,29,11,22,17.10
2015,05,29,11,23,17.10
2015,05,29,11,24,17.10
2015,05,29,11,25,17.00
2015,05,29,11,26,17.00
2015,05,29,11,27,17.10
2015,05,29,11,28,17.10
2015,05,29,11,29,17.20
2015,05,29,11,30,17.20
2015,05,29,11,31,17.20
2015,05,29,11,32,17.20
2015,05,29,11,33,17.20
2015,05,29,11,34,17.20
2015,05,29,11,35,17.20
2015,05,29,11,36,17.20
2015,05,29,11,37,17.20
2015,05,29,11,38,17.20
2015,05,29,11,39,17.20
2015,05,29,11,40,17.20
2015,05,29,11,41,17.30
2015,05,29,11,42,17.20
2015,05,29,11,43,17.30
2015,05,29,11,44,17.30
2015,05,29,11,45,17.30
2015,05,29,11,46,17.30
2015,05,29,11,47,17.30
2015,05,29,11,48,17.30
2015,05,29,11,49,17.30
2015,05,29,11,50,17.40
2015,05,29,11,51,17.40
2015,05,29,11,52,17.40
2015,05,29,11,53,17.40
2015,05,29,11,54,17.50
2015,05,29,11,55,17.60
2015,05,29,11,56,17.60
2015,05,29,11,57,17.60
2015,05,29,11,58,17.60
2015,05,29,11,59,17.60
2015,05,29,12,00,17.60
2015,05,29,12,01,17.50
2015,05,29,12,02,17.50
2015,05,29,12,03,17.50
2015,05,29,12,04,17.50
2015,05,29,12,05,17.60
2015,05,29,12,06,17.60
2015,05,29,12,07,17.60
2015,05,29,12,08,17.50
2015,05,29,12,09,17.50
2015,05,29,12,10,17.60
2015,05,29,12,11,17.60
2015,05,29,12,12,17.60
2015,05,29,12,13,17.60
2015,05,29,12,14,17.60
2015,05,29,12,15,17.60
2015,05,29,12,16,17.60
2015,05,29,12,17,17.60
2015,05,29,12,18,17.60
2015,05,29,12,19,17.60
2015,05,29,12,20,17.70
2015,05,29,12,21,17.70
2015,05,29,12,22,17.70
2015,05,29,12,23,17.80
2015,05,29,12,24,17.80
2015,05,29,12,25,17.80
2015,05,29,12,26,17.70
2015,05,29,12,27,17.70
2015,05,29,12,28,17.60
2015,05,29,12,29,17.60
2015,05,29,12,30,17.50
2015,05,29,12,31,17.50
2015,05,29,12,32,17.60
2015,05,29,12,33,17.70
2015,05,29,12,34,17.80
2015,05,29,12,35,17.80
2015,05,29,12,36,17.80
2015,05,29,12,37,17.90
2015,05,29,12,38,17.90
2015,05,29,12,39,17.90
2015,05,29,12,40,17.90
2015,05,29,12,41,17.90
2015,05,29,12,42,17.90
2015,05,29,12,43,17.80
2015,05,29,12,44,17.90
2015,05,29,12,45,17.90
2015,05,29,12,46,17.90
2015,05,29,12,47,18.00
2015,05,29,12,48,18.10
2015,05,29,12,49,18.10
2015,05,29,12,50,18.10
2015,05,29,12,51,18.20
2015,05,29,12,52,18.20
2015,05,29,12,53,18.20
2015,05,29,12,54,18.20
2015,05,29,12,55,18.20
2015,05,29,12,56,18.20
2015,05,29,12,57,18.20
2015,05,29,12,58,18.20
2015,05,29,12,59,18.20
2015,05,29,13,00,18.30
2015,05,29,13,01,18.40
2015,05,29,13,02,18.50
2015,05,29,13,03,18.60
2015,05,29,13,04,18.80
2015,05,29,13,05,18.90
2015,05,29,13,06,19.00
2015,05,29,13,07,19.10
2015,05,29,13,08,19.20
2015,05,29,13,09,19.30
2015,05,29,13,10,19.40
2015,05,29,13,11,19.50
2015,05,29,13,12,19.60
2015,05,29,13,13,19.60
2015,05,29,13,14,19.60
2015,05,29,13,15,19.60
2015,05,29,13,16,19.60
2015,05,29,13,17,19.60
2015,05,29,13,18,19.70
2015,05,29,13,19,19.70
2015,05,29,13,20,19.70
2015,05,29,13,21,19.70
2015,05,29,13,22,19.70
2015,05,29,13,23,19.70
2015,05,29,13,24,19.80
2015,05,29,13,25,19.80
2015,05,29,13,26,19.80
2015,05,29,13,27,19.80
2015,05,29,13,28,19.80
2015,05,29,13,29,19.70
2015,05,29,13,30,19.70
2015,05,29,13,31,19.70
2015,05,29,13,32,19.70
2015,05,29,13,33,19.60
2015,05,29,13,34,19.60
2015,05,29,13,35,19.60
2015,05,29,13,36,19.50
2015,05,29,13,37,19.50
2015,05,29,13,38,19.50
2015,05,29,13,39,19.50
2015,05,29,13,40,19.50
2015,05,29,13,41,19.40
2015,05,29,13,42,19.40
2015,05,29,13,43,19.40
2015,05,29,13,44,19.40
2015,05,29,13,45,19.30
2015,05,29,13,46,19.30
2015,05,29,13,47,19.30
2015,05,29,13,48,19.30
2015,05,29,13,49,19.30
2015,05,29,13,50,19.30
2015,05,29,13,51,19.30
2015,05,29,13,52,19.40
2015,05,29,13,53,19.40
2015,05,29,13,54,19.40
2015,05,29,13,55,19.40
2015,05,29,13,56,19.50
2015,05,29,13,57,19.50
2015,05,29,13,58,19.40
2015,05,29,13,59,19.40
2015,05,29,14,00,19.30
2015,05,29,14,01,19.30
2015,05,29,14,02,19.30
2015,05,29,14,03,19.30
2015,05,29,14,04,19.30
2015,05,29,14,05,19.40
2015,05,29,14,06,19.50
2015,05,29,14,07,19.60
2015,05,29,14,08,19.60
2015,05,29,14,09,19.60
2015,05,29,14,10,19.60
2015,05,29,14,11,19.60
2015,05,29,14,12,19.70
2015,05,29,14,13,19.70
2015,05,29,14,14,19.70
2015,05,29,14,15,19.80
2015,05,29,14,16,19.80
2015,05,29,14,17,19.80
2015,05,29,14,18,19.90
2015,05,29,14,19,19.90
2015,05,29,14,20,20.00
2015,05,29,14,21,20.00
2015,05,29,14,22,20.10
2015,05,29,14,23,20.10
2015,05,29,14,24,20.10
2015,05,29,14,25,20.20
2015,05,29,14,26,20.30
2015,05,29,14,27,20.30
2015,05,29,14,28,20.30
2015,05,29,14,29,20.30
2015,05,29,14,30,20.20
2015,05,29,14,31,20.20
2015,05,29,14,32,20.20
2015,05,29,14,33,20.20
2015,05,29,14,34,20.10
2015,05,29,14,35,20.10
2015,05,29,14,36,20.00
2015,05,29,14,37,19.90
2015,05,29,14,38,19.90
2015,05,29,14,39,19.90
2015,05,29,14,40,19.90
2015,05,29,14,41,19.80
2015,05,29,14,42,19.80
2015,05,29,14,43,19.80
2015,05,29,14,44,19.80
2015,05,29,14,45,19.90
2015,05,29,14,46,19.90
2015,05,29,14,47,19.80
2015,05,29,14,48,19.80
2015,05,29,14,49,19.80
2015,05,29,14,50,19.80
2015,05,29,14,51,19.80
2015,05,29,14,52,19.90
2015,05,29,14,53,19.90
2015,05,29,14,54,19.90
2015,05,29,14,55,19.90
2015,05,29,14,56,19.90
2015,05,29,14,57,20.00
2015,05,29,14,58,20.00
2015,05,29,14,59,20.00
2015,05,29,15,00,20.10
2015,05,29,15,01,20.10
2015,05,29,15,02,20.10
2015,05,29,15,03,20.10
2015,05,29,15,04,20.00
2015,05,29,15,05,19.90
2015,05,29,15,06,19.90
2015,05,29,15,07,19.90
2015,05,29,15,08,19.90
2015,05,29,15,09,19.90
2015,05,29,15,10,19.90
2015,05,29,15,11,19.90
2015,05,29,15,12,19.90
2015,05,29,15,13,19.90
2015,05,29,15,14,19.90
2015,05,29,15,15,19.90
2015,05,29,15,16,19.90
2015,05,29,15,17,20.00
2015,05,29,15,18,19.90
2015,05,29,15,19,20.00
2015,05,29,15,20,20.00
2015,05,29,15,21,20.00
2015,05,29,15,22,20.10
2015,05,29,15,23,20.20
2015,05,29,15,24,20.20
2015,05,29,15,25,20.20
2015,05,29,15,26,20.30
2015,05,29,15,27,20.30
2015,05,29,15,28,20.40
2015,05,29,15,29,20.40
2015,05,29,15,30,20.40
2015,05,29,15,31,20.40
2015,05,29,15,32,20.40
2015,05,29,15,33,20.40
2015,05,29,15,34,20.40
2015,05,29,15,35,20.30
2015,05,29,15,36,20.30
2015,05,29,15,37,20.30
2015,05,29,15,38,20.30
2015,05,29,15,39,20.30
2015,05,29,15,40,20.30
2015,05,29,15,41,20.30
2015,05,29,15,42,20.30
2015,05,29,15,43,20.30
2015,05,29,15,44,20.30
2015,05,29,15,45,20.30
2015,05,29,15,46,20.30
2015,05,29,15,47,20.30
2015,05,29,15,48,20.30
2015,05,29,15,49,20.30
2015,05,29,15,50,20.30
2015,05,29,15,51,20.30
2015,05,29,15,52,20.30
2015,05,29,15,53,20.30
2015,05,29,15,54,20.30
2015,05,29,15,55,20.40
2015,05,29,15,56,20.40
2015,05,29,15,57,20.40
2015,05,29,15,58,20.40
2015,05,29,15,59,20.50
2015,05,29,16,00,20.60
2015,05,29,16,01,20.60
2015,05,29,16,02,20.70
2015,05,29,16,03,20.70
2015,05,29,16,04,20.70
2015,05,29,16,05,20.70
2015,05,29,16,06,20.70
2015,05,29,16,07,20.70
2015,05,29,16,08,20.70
2015,05,29,16,09,20.70
2015,05,29,16,10,20.60
2015,05,29,16,11,20.60
2015,05,29,16,12,20.70
2015,05,29,16,13,20.70
2015,05,29,16,14,20.70
2015,05,29,16,15,20.60
2015,05,29,16,16,20.50
2015,05,29,16,17,20.50
2015,05,29,16,18,20.40
2015,05,29,16,19,20.40
2015,05,29,16,20,20.40
2015,05,29,16,21,20.50
2015,05,29,16,22,20.50
2015,05,29,16,23,20.60
2015,05,29,16,24,20.60
2015,05,29,16,25,20.70
2015,05,29,16,26,20.70
2015,05,29,16,27,20.60
2015,05,29,16,28,20.60
2015,05,29,16,29,20.60
2015,05,29,16,30,20.60
2015,05,29,16,31,20.50
2015,05,29,16,32,20.50
2015,05,29,16,33,20.50
2015,05,29,16,34,20.50
2015,05,29,16,35,20.50
2015,05,29,16,36,20.50
2015,05,29,16,37,20.50
2015,05,29,16,38,20.50
2015,05,29,16,39,20.50
2015,05,29,16,40,20.60
2015,05,29,16,41,20.60
2015,05,29,16,42,20.70
2015,05,29,16,43,20.70
2015,05,29,16,44,20.70
2015,05,29,16,45,20.80
2015,05,29,16,46,20.80
2015,05,29,16,47,20.70
2015,05,29,16,48,20.70
2015,05,29,16,49,20.70
2015,05,29,16,50,20.70
2015,05,29,16,51,20.60
2015,05,29,16,52,20.60
2015,05,29,16,53,20.60
2015,05,29,16,54,20.60
2015,05,29,16,55,20.60
2015,05,29,16,56,20.60
2015,05,29,16,57,20.70
2015,05,29,16,58,20.80
2015,05,29,16,59,20.80
2015,05,29,17,00,20.80
2015,05,29,17,01,20.90
2015,05,29,17,02,20.90
2015,05,29,17,03,20.90
2015,05,29,17,04,20.90
2015,05,29,17,05,20.90
2015,05,29,17,06,20.90
2015,05,29,17,07,20.90
2015,05,29,17,08,21.00
2015,05,29,17,09,21.00
2015,05,29,17,10,21.10
2015,05,29,17,11,21.10
2015,05,29,17,12,21.00
2015,05,29,17,13,21.00
2015,05,29,17,14,21.00
2015,05,29,17,15,21.00
2015,05,29,17,16,21.00
2015,05,29,17,17,21.10
2015,05,29,17,18,21.10
2015,05,29,17,19,21.20